Location: Fosso Corella
(43.9167°N, 11.5667°E)
Time: 04:28:47
(UTC+00:00)

Cosmos 2184 Rocket - Pass Details

Date: 07 June 2020
Orbit: 960 x 1001 km, 82.9° (Epoch: 07 July)

Event Time Altitude Azimuth Distance (km) Brightness Sun altitude
Exits shadow 01:16:27 28° 212° (SSW) 1,720 4.7 -17.5°
Maximum altitude 01:19:42 59° 281° (WNW) 1,103 4.2 -17.2°
Drops below altitude 10° 01:25:48 10° 1° (N) 2,706 7.2 -16.7°
Sets 01:28:22 0° 5° (N) 3,659 8.2 -16.4°
